Terminal Aerodrome Forecast
Issued by NWS

Home | Current Version | Previous Version | Text Only | Print | Product List | Glossary On
Versions: 1 2 3 4 5 6 7 8 9 10 11 12 13 14 15 16 17 18 19 20 21 22 23 24 25 26 27 28 29 30 31 32 33 34
000
FTUS41 KOKX 251729
TAFHPN
TAF
KHPN 251729Z 2518/2618 09006KT 3/4SM SHRA BR OVC002
     FM252000 VRB03KT 1/2SM -SHRA FG OVC002
     FM260300 VRB05KT 1/4SM FG OVC004
     FM260900 30007KT 3SM BR SCT004 OVC015
     FM261100 29010KT P6SM FEW010 BKN025
     FM261300 28012KT P6SM SCT035 SCT100
     FM261600 27012G20KT P6SM SCT250=

USA.gov is the U.S. government's official web portal to all federal, state and local government web resources and services.